| time (UTC) | temp F | wind direction | speed MPH | gust MPH | rain 1hr in | rain 24hr in | rain mn in | humidity % | barometer mb |
| 20260906194005 | 67 | 147 | 1.0 | 8.0 | 0.00 | 0.00 | 0.00 | 83 | 1017.9 |
| 20260906193005 | 67 | 133 | 5.0 | 12.0 | 0.00 | 0.00 | 0.00 | 83 | 1017.6 |
| 20260906192006 | 67 | 130 | 6.0 | 12.0 | 0.00 | 0.00 | 0.00 | 82 | 1017.4 |
| 20260906191005 | 67 | 127 | 8.0 | 12.0 | 0.00 | 0.00 | 0.00 | 82 | 1017.3 |
| 20260906190005 | 67 | 128 | 9.0 | 12.0 | 0.00 | 0.00 | 0.00 | 82 | 1017.6 |
| 20260906184005 | 67 | 138 | 7.0 | 12.0 | 0.00 | 0.00 | 0.00 | 82 | 1017.8 |
| 20260906183005 | 67 | 130 | 7.0 | 12.0 | 0.00 | 0.00 | 0.00 | 82 | 1017.9 |
| 20260906182005 | 68 | 130 | 6.0 | 10.0 | 0.00 | 0.00 | 0.00 | 82 | 1017.8 |
| 20260906181005 | 68 | 130 | 6.0 | 12.0 | 0.00 | 0.00 | 0.00 | 81 | 1017.9 |
| 20260906180005 | 68 | 130 | 7.0 | 12.0 | 0.00 | 0.00 | 0.00 | 80 | 1018.0 |
| 20260906175005 | 69 | 136 | 8.0 | 12.0 | 0.00 | 0.00 | 0.00 | 79 | 1017.9 |
| 20260906174005 | 69 | 130 | 9.0 | 15.0 | 0.00 | 0.00 | 0.00 | 78 | 1017.9 |
| 20260906172005 | 69 | 127 | 10.0 | 15.0 | 0.00 | 0.00 | 0.00 | 78 | 1018.0 |
| 20260906171006 | 70 | 130 | 11.0 | 15.0 | 0.00 | 0.00 | 0.00 | 78 | 1018.2 |
| 20260906170005 | 70 | 127 | 10.0 | 18.0 | 0.00 | 0.00 | 0.00 | 78 | 1018.5 |
| 20260906165005 | 70 | 126 | 9.0 | 17.0 | 0.00 | 0.00 | 0.00 | 79 | 1018.8 |
| 20260906164005 | 70 | 125 | 9.0 | 15.0 | 0.00 | 0.00 | 0.00 | 80 | 1018.8 |
| 20260906163005 | 69 | 135 | 7.0 | 14.0 | 0.00 | 0.00 | 0.00 | 80 | 1019.0 |
| 20260906162005 | 69 | 129 | 10.0 | 15.0 | 0.00 | 0.00 | 0.00 | 80 | 1019.1 |
| 20260906161005 | 69 | 127 | 9.0 | 14.0 | 0.00 | 0.00 | 0.00 | 81 | 1019.1 |
| 20260906160005 | 69 | 136 | 9.0 | 14.0 | 0.00 | 0.00 | 0.00 | 81 | 1019.1 |
| 20260906155005 | 69 | 130 | 7.0 | 12.0 | 0.00 | 0.00 | 0.00 | 81 | 1019.1 |
| 20260906151005 | 69 | 125 | 9.0 | 12.0 | 0.00 | 0.00 | 0.00 | 77 | 1019.5 |
| 20260906145005 | 69 | 134 | 8.0 | 12.0 | 0.00 | 0.00 | 0.00 | 77 | 1019.7 |
| 20260906144005 | 69 | 131 | 4.0 | 12.0 | 0.00 | 0.00 | 0.00 | 78 | 1020.1 |
| 20260906143005 | 69 | 149 | 6.0 | 14.0 | 0.00 | 0.00 | 0.00 | 79 | 1020.2 |
| 20260906141005 | 69 | 130 | 8.0 | 12.0 | 0.00 | 0.00 | 0.00 | 79 | 1020.3 |
| 20260906140005 | 69 | 131 | 9.0 | 12.0 | 0.00 | 0.00 | 0.00 | 78 | 1020.4 |
| 20260906135005 | 69 | 131 | 9.0 | 16.0 | 0.00 | 0.00 | 0.00 | 77 | 1020.4 |
| 20260906134005 | 70 | 127 | 10.0 | 14.0 | 0.00 | 0.00 | 0.00 | 76 | 1020.4 |
| 20260906133005 | 70 | 128 | 10.0 | 12.0 | 0.00 | 0.00 | 0.00 | 76 | 1020.5 |
| 20260906132005 | 70 | 134 | 7.0 | 14.0 | 0.00 | 0.00 | 0.00 | 76 | 1020.5 |
| 20260906131005 | 70 | 137 | 6.0 | 15.0 | 0.00 | 0.00 | 0.00 | 77 | 1020.6 |
| 20260906130005 | 70 | 131 | 10.0 | 16.0 | 0.00 | 0.00 | 0.00 | 74 | 1020.6 |
| 20260906125006 | 72 | 126 | 9.0 | 16.0 | 0.00 | 0.00 | 0.00 | 72 | 1020.5 |
| 20260906124005 | 74 | 130 | 10.0 | 15.0 | 0.00 | 0.00 | 0.00 | 68 | 1020.6 |
| 20260906123005 | 75 | 126 | 9.0 | 15.0 | 0.00 | 0.00 | 0.00 | 68 | 1020.7 |
| 20260906122005 | 75 | 143 | 7.0 | 12.0 | 0.00 | 0.00 | 0.00 | 68 | 1020.8 |
| 20260906121005 | 75 | 134 | 7.0 | 12.0 | 0.00 | 0.00 | 0.00 | 67 | 1020.9 |
| 20260906120005 | 75 | 137 | 9.0 | 14.0 | 0.00 | 0.00 | 0.00 | 67 | 1020.9 |
| 20260906115005 | 76 | 128 | 10.0 | 14.0 | 0.00 | 0.00 | 0.00 | 67 | 1021.0 |
| 20260906114005 | 76 | 133 | 7.0 | 12.0 | 0.00 | 0.00 | 0.00 | 67 | 1021.1 |
| 20260906112004 | 74 | 135 | 6.0 | 12.0 | 0.00 | 0.00 | 0.00 | 69 | 1021.3 |
| 20260906111005 | 73 | 142 | 3.0 | 12.0 | 0.00 | 0.00 | 0.00 | 70 | 1021.5 |
| 20260906105005 | 72 | 134 | 8.0 | 15.0 | 0.00 | 0.00 | 0.00 | 74 | 1021.6 |
| 20260906104006 | 71 | 131 | 10.0 | 15.0 | 0.00 | 0.00 | 0.00 | 72 | 1021.7 |
| 20260906103004 | 71 | 127 | 9.0 | 16.0 | 0.00 | 0.00 | 0.00 | 73 | 1021.8 |
| 20260906102005 | 71 | 129 | 11.0 | 16.0 | 0.00 | 0.00 | 0.00 | 73 | 1021.9 |
| 20260906100004 | 70 | 128 | 10.0 | 18.0 | 0.00 | 0.00 | 0.00 | 75 | 1022.0 |
| 20260906095004 | 70 | 140 | 7.0 | 16.0 | 0.00 | 0.00 | 0.00 | 76 | 1022.0 |
| 20260906094004 | 69 | 129 | 9.0 | 16.0 | 0.00 | 0.00 | 0.00 | 77 | 1022.0 |
| 20260906093004 | 69 | 134 | 12.0 | 17.0 | 0.00 | 0.00 | 0.00 | 76 | 1021.9 |
| 20260906091004 | 69 | 136 | 9.0 | 18.0 | 0.00 | 0.00 | 0.00 | 76 | 1022.0 |
| 20260906090004 | 69 | 136 | 10.0 | 18.0 | 0.00 | 0.00 | 0.00 | 77 | 1021.9 |
| 20260906085004 | 68 | 134 | 8.0 | 16.0 | 0.00 | 0.00 | 0.00 | 79 | 1022.1 |
| 20260906084004 | 68 | 127 | 12.0 | 16.0 | 0.00 | 0.00 | 0.00 | 80 | 1022.2 |
| 20260906083005 | 67 | 137 | 12.0 | 18.0 | 0.00 | 0.00 | 0.00 | 79 | 1022.3 |
| 20260906082004 | 67 | 128 | 12.0 | 18.0 | 0.00 | 0.00 | 0.00 | 79 | 1022.1 |
| 20260906081004 | 66 | 131 | 12.0 | 20.0 | 0.00 | 0.00 | 0.00 | 78 | 1022.1 |
| 20260906080004 | 66 | 128 | 12.0 | 18.0 | 0.00 | 0.00 | 0.00 | 79 | 1022.1 |
| 20260906075004 | 65 | 132 | 9.0 | 17.0 | 0.00 | 0.00 | 0.00 | 80 | 1022.2 |
| 20260906074004 | 65 | 126 | 11.0 | 17.0 | 0.00 | 0.00 | 0.00 | 81 | 1022.2 |
| 20260906073004 | 64 | 129 | 9.0 | 15.0 | 0.00 | 0.00 | 0.00 | 84 | 1022.2 |
| 20260906072004 | 64 | 129 | 10.0 | 15.0 | 0.00 | 0.00 | 0.00 | 86 | 1022.2 |
| 20260906070004 | 63 | 134 | 7.0 | 17.0 | 0.00 | 0.00 | 0.00 | 86 | 1022.4 |
| 20260906065004 | 62 | 133 | 9.0 | 15.0 | 0.00 | 0.00 | 0.00 | 86 | 1022.5 |
| 20260906063004 | 61 | 126 | 7.0 | 12.0 | 0.00 | 0.00 | 0.00 | 86 | 1022.5 |
| 20260906062005 | 61 | 133 | 5.0 | 9.0 | 0.00 | 0.00 | 0.00 | 87 | 1022.8 |
| 20260906060004 | 60 | 136 | 5.0 | 10.0 | 0.00 | 0.00 | 0.00 | 88 | 1023.0 |
| 20260906055006 | 60 | 135 | 3.0 | 7.0 | 0.00 | 0.00 | 0.00 | 88 | 1023.2 |
| 20260906053006 | 59 | 137 | 3.0 | 8.0 | 0.00 | 0.00 | 0.00 | 89 | 1023.3 |
| 20260906052004 | 59 | 139 | 3.0 | 6.0 | 0.00 | 0.00 | 0.00 | 90 | 1023.2 |
| 20260906051004 | 58 | 138 | 2.0 | 6.0 | 0.00 | 0.00 | 0.00 | 90 | 1023.1 |
| 20260906050004 | 58 | 161 | 5.0 | 7.0 | 0.00 | 0.00 | 0.00 | 90 | 1023.2 |
| 20260906045004 | 58 | 134 | 3.0 | 5.0 | 0.00 | 0.00 | 0.00 | 90 | 1023.2 |
| 20260906044007 | 57 | 136 | 3.0 | 6.0 | 0.00 | 0.00 | 0.00 | 92 | 1023.4 |
| 20260906043006 | 57 | 142 | 2.0 | 6.0 | 0.00 | 0.00 | 0.00 | 93 | 1023.6 |
| 20260906042006 | 56 | 149 | 2.0 | 5.0 | 0.00 | 0.00 | 0.00 | 92 | 1023.6 |
| 20260906041006 | 56 | 143 | 2.0 | 6.0 | 0.00 | 0.00 | 0.00 | 91 | 1023.6 |
| 20260906040006 | 56 | 215 | 0.0 | 2.0 | 0.00 | 0.00 | 0.00 | 91 | 1023.6 |
| 20260906035006 | 56 | 215 | 0.0 | 0.0 | 0.00 | 0.00 | 0.00 | 91 | 1023.7 |
| 20260906033006 | 56 | 215 | 0.0 | 0.0 | 0.00 | 0.00 | 0.00 | 91 | 1023.9 |
| 20260906032007 | 56 | 215 | 0.0 | 0.0 | 0.00 | 0.00 | 0.00 | 91 | 1024.1 |
| 20260906030006 | 56 | 215 | 0.0 | 0.0 | 0.00 | 0.00 | 0.00 | 91 | 1024.4 |
| 20260906025006 | 56 | 215 | 0.0 | 0.0 | 0.00 | 0.00 | 0.00 | 91 | 1024.6 |
| 20260906024006 | 56 | 215 | 0.0 | 3.0 | 0.00 | 0.00 | 0.00 | 91 | 1024.5 |
| 20260906023005 | 56 | 215 | 0.0 | 2.0 | 0.00 | 0.00 | 0.00 | 91 | 1024.7 |
| 20260906022006 | 56 | 215 | 0.0 | 0.0 | 0.00 | 0.00 | 0.00 | 91 | 1024.6 |
| 20260906021006 | 56 | 215 | 0.0 | 0.0 | 0.00 | 0.00 | 0.00 | 90 | 1024.4 |
| 20260906015006 | 56 | 215 | 0.0 | 0.0 | 0.00 | 0.00 | 0.00 | 91 | 1024.8 |
| 20260906014006 | 56 | 215 | 0.0 | 0.0 | 0.00 | 0.00 | 0.00 | 91 | 1024.9 |
| 20260906013007 | 56 | 215 | 0.0 | 0.0 | 0.00 | 0.00 | 0.00 | 91 | 1024.9 |
| 20260906012006 | 56 | 215 | 0.0 | 0.0 | 0.00 | 0.00 | 0.00 | 91 | 1025.0 |
| 20260906011005 | 56 | 215 | 0.0 | 0.0 | 0.00 | 0.00 | 0.00 | 91 | 1025.0 |
| 20260906010006 | 56 | 215 | 0.0 | 0.0 | 0.00 | 0.00 | 0.00 | 91 | 1025.0 |
| 20260906005007 | 55 | 215 | 0.0 | 0.0 | 0.00 | 0.00 | 0.00 | 91 | 1025.1 |
| 20260906004006 | 55 | 215 | 0.0 | 0.0 | 0.00 | 0.00 | 0.00 | 91 | 1025.0 |
| 20260906003006 | 55 | 215 | 0.0 | 0.0 | 0.00 | 0.00 | 0.00 | 90 | 1025.3 |
| 20260906002007 | 55 | 215 | 0.0 | 1.0 | 0.00 | 0.00 | 0.00 | 90 | 1025.5 |
| 20260906001007 | 55 | 215 | 0.0 | 1.0 | 0.00 | 0.00 | 0.00 | 88 | 1025.8 |
| 20260906000006 | 55 | 215 | 1.0 | 2.0 | 0.00 | 0.00 | 0.00 | 88 | 1025.9 |
| 20260905235006 | 56 | 215 | 0.0 | 3.0 | 0.00 | 0.00 | 0.00 | 91 | 1025.9 |
| 20260905234006 | 55 | 215 | 1.0 | 3.0 | 0.00 | 0.00 | 0.00 | 91 | 1026.0 |
| 20260905232006 | 55 | 215 | 0.0 | 0.0 | 0.00 | 0.00 | 0.00 | 90 | 1025.9 |
| 20260905231006 | 55 | 215 | 0.0 | 2.0 | 0.00 | 0.00 | 0.00 | 89 | 1025.8 |
| 20260905230005 | 55 | 215 | 1.0 | 2.0 | 0.00 | 0.00 | 0.00 | 89 | 1025.6 |
| 20260905224006 | 55 | 215 | 1.0 | 2.0 | 0.00 | 0.00 | 0.00 | 88 | 1025.4 |
| 20260905223006 | 55 | 215 | 1.0 | 3.0 | 0.00 | 0.00 | 0.00 | 87 | 1025.4 |
| 20260905222005 | 55 | 215 | 1.0 | 3.0 | 0.00 | 0.00 | 0.00 | 86 | 1025.4 |
| 20260905221005 | 56 | 215 | 0.0 | 1.0 | 0.00 | 0.00 | 0.00 | 86 | 1025.4 |
| 20260905220005 | 56 | 215 | 0.0 | 1.0 | 0.00 | 0.00 | 0.00 | 85 | 1025.5 |
| 20260905215005 | 56 | 215 | 0.0 | 2.0 | 0.00 | 0.00 | 0.00 | 85 | 1025.6 |
| 20260905214005 | 57 | 215 | 0.0 | 2.0 | 0.00 | 0.00 | 0.00 | 86 | 1025.6 |
| 20260905213005 | 57 | 215 | 0.0 | 2.0 | 0.00 | 0.00 | 0.00 | 86 | 1025.6 |
| 20260905212006 | 57 | 215 | 1.0 | 2.0 | 0.00 | 0.00 | 0.00 | 85 | 1025.6 |
| 20260905211005 | 57 | 215 | 0.0 | 0.0 | 0.00 | 0.00 | 0.00 | 84 | 1025.5 |
| 20260905210005 | 57 | 215 | 0.0 | 0.0 | 0.00 | 0.00 | 0.00 | 84 | 1025.4 |
| 20260905205005 | 57 | 215 | 0.0 | 0.0 | 0.00 | 0.00 | 0.00 | 84 | 1025.6 |
| 20260905204005 | 57 | 215 | 0.0 | 1.0 | 0.00 | 0.00 | 0.00 | 84 | 1025.8 |
| 20260905203005 | 57 | 215 | 0.0 | 0.0 | 0.00 | 0.00 | 0.00 | 82 | 1026.0 |
| 20260905202006 | 57 | 215 | 0.0 | 1.0 | 0.00 | 0.00 | 0.00 | 82 | 1026.0 |
| 20260905201005 | 58 | 215 | 0.0 | 2.0 | 0.00 | 0.00 | 0.00 | 81 | 1025.9 |
| 20260905200005 | 58 | 215 | 0.0 | 2.0 | 0.00 | 0.00 | 0.00 | 80 | 1025.8 |
| 20260905195005 | 58 | 215 | 0.0 | 2.0 | 0.00 | 0.00 | 0.00 | 80 | 1025.7 |